sim
Sign-in with your pilot id or email,
or register
Callsign
Passwort

Schedule Details

Flight Number: RYR5912 (1)
Departure: Seville San Pablo Airport (LEZL) at 06:00
Arrival: Fuerteventura Airport (GCFV) at 08:15
Route: Ryanair Passenger Schedule. Enter filed route here before submitting Pirep.

Weather Information
Getting current METAR information for LEZL 211700Z 24005KT 190V330 CAVOK 35/12 Q1013 NOSIG
Getting current METAR information for GCFV 211700Z 05017KT CAVOK 25/20 Q1014

Schedule Frequency

Route Map